Weather History for Emporia, KS

Change the Weather History Date:

Saturday, October 27, 2012

  Actual Average Record
Temperature  
Mean Temperature 37 °F 53 °F  
Max Temperature 48 °F 65 °F 84 °F (1999)
Min Temperature 25 °F 41 °F 23 °F (1997)
Degree Days  
Heating Degree Days 28 12  
Month to date heating degree days 248 224  
Since 1 July heating degree days 288 274  
Cooling Degree Days 0 0  
Month to date cooling degree days 44 29  
Year to date cooling degree days 1909 1402  
Moisture  
Dew Point 26 °F    
Average Humidity 64    
Maximum Humidity 85    
Minimum Humidity 42    
Precipitation  
Precipitation 0.00 in 0.08 in 1.28 in (2002)
Month to date precipitation 1.73 2.58  
Year to date precipitation 20.35 32.58  
Sea Level Pressure  
Sea Level Pressure 30.38 in    
Wind  
Wind Speed 3 mph (NE)    
Max Wind Speed 12 mph    
Max Gust Speed 14 mph    
Visibility 10 miles    
Events      
T = Trace of Precipitation, MM = Missing Value Source: NWS Daily Summary

Daily Weather History Graph

Daily Weather History Graph

Search for Another Location

Airport:

Trip Planner

Search our weather history database for the weather conditions in past years. The results will help you decide how hot, cold, wet, or windy it might be!

Date:

Astronomy

Oct. 27, 2012 Rise Set
Actual Time 7:46 AM CDT 6:30 PM CDT
Civil Twilight 7:19 AM CDT 6:57 PM CDT
Nautical Twilight 6:48 AM CDT 7:28 PM CDT
Astronomical Twilight 6:17 AM CDT 7:59 PM CDT
Moon 5:16 PM CDT (10/27) 5:43 AM CDT (10/27)
Length of Visible Light 11h 38m
Length of Day
10h 44m
Waxing Gibbous, 96% of the Moon is Illuminated
Oct 27
Waxing Gibbous
Oct 29
Full
Nov 6
Last Quarter
Nov 13
New
Nov 20
First Quarter

Hourly Weather History & Observations

Time (CDT) Temp. Windchill Dew Point Humidity Pressure Visibility Wind Dir Wind Speed Gust Speed Precip Events Conditions
12:53 AM 30.9 °F 27.5 °F 24.1 °F 76% 30.43 in 10.0 mi North 3.5 mph - N/A   Clear
1:53 AM 30.0 °F - 24.1 °F 79% 30.43 in 10.0 mi Calm Calm - N/A   Clear
2:53 AM 28.9 °F - 24.1 °F 82% 30.43 in 10.0 mi Calm Calm - N/A   Clear
3:53 AM 28.0 °F - 23.0 °F 81% 30.42 in 10.0 mi Calm Calm - N/A   Clear
4:53 AM 27.0 °F - 23.0 °F 85% 30.41 in 10.0 mi Calm Calm - N/A   Clear
5:53 AM 27.0 °F 23.0 °F 23.0 °F 85% 30.41 in 10.0 mi North 3.5 mph - N/A   Clear
6:53 AM 26.1 °F 21.9 °F 23.0 °F 88% 30.43 in 10.0 mi NNW 3.5 mph - N/A   Clear
7:53 AM 26.1 °F - 23.0 °F 88% 30.44 in 10.0 mi Calm Calm - N/A   Clear
8:53 AM 28.0 °F 24.2 °F 25.0 °F 88% 30.47 in 10.0 mi WNW 3.5 mph - N/A   Clear
9:53 AM 34.0 °F - 28.0 °F 79% 30.46 in 10.0 mi Calm Calm - N/A   Clear
10:53 AM 39.0 °F 35.7 °F 28.0 °F 65% 30.43 in 10.0 mi East 4.6 mph - N/A   Clear
11:53 AM 41.0 °F 38.0 °F 26.1 °F 55% 30.41 in 10.0 mi Variable 4.6 mph - N/A   Clear
12:53 PM 44.1 °F 39.5 °F 27.0 °F 51% 30.38 in 10.0 mi ENE 8.1 mph - N/A   Clear
1:53 PM 45.0 °F 40.6 °F 26.1 °F 48% 30.34 in 10.0 mi East 8.1 mph - N/A   Clear
2:53 PM 46.0 °F 43.9 °F 26.1 °F 46% 30.32 in 10.0 mi NNE 4.6 mph - N/A   Clear
3:53 PM 46.9 °F - 26.1 °F 44% 30.29 in 10.0 mi NNE 6.9 mph - N/A   Clear
4:53 PM 46.0 °F 43.1 °F 25.0 °F 44% 30.29 in 10.0 mi East 5.8 mph - N/A   Clear
5:53 PM 45.0 °F 43.5 °F 26.1 °F 48% 30.28 in 10.0 mi East 3.5 mph - N/A   Clear
6:53 PM 41.0 °F - 27.0 °F 57% 30.29 in 10.0 mi Calm Calm - N/A   Clear
7:53 PM 41.0 °F 39.0 °F 28.0 °F 60% 30.31 in 10.0 mi ENE 3.5 mph - N/A   Clear
8:53 PM 39.9 °F 37.8 °F 28.9 °F 65% 30.31 in 10.0 mi East 3.5 mph - N/A   Mostly Cloudy
9:53 PM 39.9 °F - 28.9 °F 65% 30.32 in 10.0 mi Calm Calm - N/A   Overcast
11:53 PM 36.0 °F 32.1 °F 28.9 °F 76% 30.33 in 10.0 mi East 4.6 mph - N/A   Overcast